TimeMDT,TemperatureF,Dew PointF,Humidity,Sea Level PressureIn,VisibilityMPH,Wind Direction,Wind SpeedMPH,Gust SpeedMPH,PrecipitationIn,Events,Conditions,WindDirDegrees,DateUTC
12:54 AM,70.0,48.0,46,29.97,10.0,WSW,16.1,-,N/A,,Clear,250,2013-08-17 06:54:00
1:54 AM,68.0,48.0,49,29.95,10.0,WSW,18.4,-,N/A,,Clear,250,2013-08-17 07:54:00
2:54 AM,64.0,48.0,56,29.96,10.0,WSW,13.8,-,N/A,,Clear,250,2013-08-17 08:54:00
3:54 AM,64.9,46.0,50,29.96,10.0,NNW,3.5,-,N/A,,Clear,340,2013-08-17 09:54:00
4:54 AM,61.0,46.9,60,29.96,10.0,WNW,5.8,-,N/A,,Clear,290,2013-08-17 10:54:00
5:54 AM,59.0,46.9,64,29.98,10.0,West,12.7,-,N/A,,Clear,260,2013-08-17 11:54:00
6:54 AM,60.1,46.9,62,29.99,10.0,West,10.4,-,N/A,,Clear,260,2013-08-17 12:54:00
7:54 AM,66.0,46.0,48,29.99,10.0,WSW,10.4,-,N/A,,Clear,240,2013-08-17 13:54:00
8:54 AM,73.0,45.0,37,29.98,10.0,WSW,11.5,-,N/A,,Clear,250,2013-08-17 14:54:00
9:54 AM,78.1,45.0,31,29.98,10.0,NNW,3.5,-,N/A,,Clear,330,2013-08-17 15:54:00
10:54 AM,82.0,46.0,28,29.98,10.0,Calm,Calm,-,N/A,,Clear,0,2013-08-17 16:54:00
11:54 AM,87.1,44.1,22,29.94,10.0,Variable,5.8,-,N/A,,Clear,0,2013-08-17 17:54:00
12:54 PM,89.1,41.0,19,29.90,10.0,Variable,3.5,-,N/A,,Clear,0,2013-08-17 18:54:00
1:54 PM,90.0,39.0,17,29.89,10.0,Variable,4.6,-,N/A,,Clear,0,2013-08-17 19:54:00
2:54 PM,88.0,41.0,19,29.90,10.0,SE,6.9,-,N/A,,Clear,130,2013-08-17 20:54:00
3:54 PM,87.1,41.0,20,29.89,10.0,WSW,17.3,-,N/A,,Partly Cloudy,240,2013-08-17 21:54:00
4:54 PM,88.0,36.0,16,29.88,10.0,Variable,6.9,-,N/A,,Clear,0,2013-08-17 22:54:00
5:54 PM,87.1,34.0,15,29.89,10.0,Calm,Calm,-,N/A,,Clear,0,2013-08-17 23:54:00
6:54 PM,86.0,37.9,18,29.88,10.0,East,4.6,-,N/A,,Clear,80,2013-08-18 00:54:00
7:54 PM,82.0,45.0,27,29.89,10.0,ESE,9.2,-,N/A,,Clear,110,2013-08-18 01:54:00
8:54 PM,73.0,46.0,38,29.91,10.0,SSE,9.2,-,N/A,,Clear,160,2013-08-18 02:54:00
9:54 PM,72.0,42.1,34,29.92,10.0,Calm,Calm,-,N/A,,Clear,0,2013-08-18 03:54:00
10:54 PM,68.0,44.1,42,29.92,10.0,WSW,9.2,-,N/A,,Clear,250,2013-08-18 04:54:00
11:54 PM,70.0,44.1,39,29.90,10.0,SW,10.4,-,N/A,,Clear,230,2013-08-18 05:54:00